Find INMARSAT III F-4

NORAD ID: 24819 Int'l Des: 1997-027 Owner: INMAR Country: I-INM operational
HEOCIRCULAR

Live-Position

3D-Globus wird geladen...

Über INMARSAT III F-4

Beschreibung wird geladen...

Nächste Überflüge

Passes for default location (London). Set your location on the main map for personalized predictions.

Höhenverlauf

Loading altitude history...

Zweizeiliger Elementsatz

1 24819U 97027A 26105.48509811 .00000094 00000-0 00000+0 0 9991
2 24819 11.4117 38.2379 0009217 42.5925 153.7938 0.99497484105432
Epoch: 15. Apr. 2026 • Age: 26 hours

Aktueller Status

Höhe 36044.8 km
Geschwindigkeit 3.06 km/s
Subsatellitenpunkt -8.63°S, 147.29°W
Startdatum 3. Juni 1997
Alter 28.8 years
Typ communications

Technische Details

Klassifizierung Payload
Masse 1068.00 kg
Trockenmasse 813.00 kg
Gesamtmasse 1999.00 kg
Länge 7.60 m
Durchmesser 2.30 m
Spannweite 20.70 m
Form Box + 2 Pan
Hersteller LMTEW
Bus-Typ AS4000
Phasenstatus Renamed
Besitzer/Staat INMAR/I-INM

Most Searched